Погода в Далоа

Кот-д’Ивуар     6°45′40″N   6°24′28″W
темп.,
°C
ветер,
м/с
пор.,
м/с
влажн.,
%
обл.,
%
осадки,
мм/ч
давл.,
гПа
погр.,
м
1 августа, вс
вс100:00+22ююз21098100 8.7 1017502
03:00+21юз2999100 0.9 1015544
06:00+21юз1899100 1.1 1017404
09:00+23ююз279661 0.4 1018492
12:00+26юз248052 2.3 1017934
15:00+25ююз2486100 2.6 1014778
18:00+24ю149719 5.0 1015278
21:00+21ю159993 2.4 1017153
2 августа, пн
пн200:00+21ю159979 2.4 1018173
03:00+21ююз2799100 0.1 1016434
06:00+21юз189962 0.1 1017393
09:00+23юз258449 0.0 1019646
12:00+27юз236295 0.1 10171360
15:00+30з234725 0.0 10141847
18:00+27зюз116658 0.0 101425
21:00+23юв0179100 0.0 101611
3 августа, вт
вт300:00+21ю169387 0.0 1016234
03:00+21юз2998100 0.0 1015469
06:00+20юз169960 0.0 1016250
09:00+24зюз257565 0.0 1018842
12:00+28зюз235997 0.1 10171417
15:00+29юз235660 0.1 10141585
18:00+25юз257544 0.1 1014313
21:00+22юз1185100 0.0 101634
4 августа, ср
ср400:00+21ююз1491100 0.1 1016105
03:00+20юз1797100 0.0 1015259
06:00+20ююз1610087 0.0 1016245
09:00+24юз247888 0.0 1018740
12:00+27юз236485 0.1 10171266
15:00+28ююз236190 0.1 10151093
18:00+25ююз147747 0.1 1015169
21:00+22ююз289242 0.1 1018273
5 августа, чт
чт500:00+21ююз289625 0.1 1018334
03:00+21юз1794100 0.0 1017401
06:00+21ююз169697 0.1 1018382
09:00+24юз247464 0.0 1019786
12:00+27юз236094 0.1 10181436
15:00+28юз2357100 0.1 10161251
18:00+25ююз267468 0.1 1015296
21:00+22ю15879 0.0 1017137